Regional Weather Roundup
Issued by NWS

Home | Current Version | Previous Version | Graphics & Text | Print | Product List | Glossary On
Versions: 1 2 3 4 5 6 7 8 9 10 11 12 13 14 15 16 17 18 19 20 21 22 23 24 25 26 27 28 29 30 31 32 33 34 35 36 37 38 39 40 41 42 43 44 45 46 47 48 49 50
000
ASUS44 KMEG 141600
RWRTN
TENNESSEE HOURLY STATE WEATHER ROUNDUP
NATIONAL WEATHER SERVICE MEMPHIS TN
1000 AM CST THU DEC 14 2017

TNZ002-004-019-021-049-052-054-088>092-141700-
WEST TENNESSEE

CITY           SKY/WX    TMP DP  RH WIND       PRES   REMARKS
MEMPHIS INTL   MOSUNNY   46  28  49 NE14      30.06R
NWS MEMPHIS      N/A     44 N/A N/A MISG        N/A
JACKSON        SUNNY     43  28  55 NE8       30.05R
DYERSBURG      SUNNY     42  27  55 NE8       30.08R
$$

TNZ008-025-027-028-033-062-065-066-141700-
NORTH MIDDLE TENNESSEE

CITY           SKY/WX    TMP DP  RH WIND       PRES   REMARKS
NASHVILLE      CLOUDY    40  28  62 N9        30.01R WCI  34
CLARKSVILLE    CLOUDY    35  22  58 N10       30.04R WCI  27
SMYRNA         CLOUDY    39  27  62 N10       30.02R WCI  32
CROSSVILLE     MOSUNNY   35  26  69 N5        29.93R WCI  31
$$

TNZ061-075-076-078-094-096-097-141700-
SOUTH MIDDLE TENNESSEE

CITY           SKY/WX    TMP DP  RH WIND       PRES   REMARKS
WINCHESTER     SUNNY     39  30  70 N3        29.96S
$$

TNZ017-018-042-046-047-141700-
NORTHEAST TENNESSEE

CITY           SKY/WX    TMP DP  RH WIND       PRES   REMARKS
TRI CITIES     PTSUNNY   43  28  55 W8        29.90R
$$

TNZ012-013-036-069-073-074-141700-
CENTRAL EAST TENNESSEE

CITY           SKY/WX    TMP DP  RH WIND       PRES   REMARKS
KNOXVILLE      MOSUNNY   45  31  58 N5        29.92R
OAK RIDGE      SUNNY     44  29  55 VRB3      29.94R
$$

TNZ083-085-099-141700-
SOUTHEAST TENNESSEE

CITY           SKY/WX    TMP DP  RH WIND       PRES   REMARKS
CHATTANOOGA    MOSUNNY   47  29  49 N5        29.95R
$$

SKY/WX REPORTED AS FAIR MEANS FEW OR NO CLOUDS BELOW
12 THOUSAND FEET.





USA.gov is the U.S. government's official web portal to all federal, state and local government web resources and services.